Hourly Data Report for July 30, 2021

HALIFAX STANFIELD INT'L A
NOVA SCOTIA
Current Station Operator: NAVCAN

44°52'52.000" N
63°30'31.000" W
145.40 m
8202251
71395
YHZ

Download Data

Hourly Data (July 2021)
Hourly Data Report for July 30, 2021
TIME
LST
Temp Definition
°C
Dew Point Definition
°C
Rel Hum Definition
%
Precip. Amount Definition
mm

Wind Dir Definition
10's deg

Wind Spd Definition
km/h
Visibility Definition
km
Stn Press Definition
kPa
Hmdx Definition


Wind Chill Definition


Weather Definition


00:00 15.3 14.0 92   21 12 24.1 99.62     LegendNANA
01:00 15.1 14.0 93   18 13 24.1 99.58     LegendNANA
02:00 15.2 12.4 83   18 13 24.1 99.51     Cloudy
03:00 15.0 12.3 84   18 10 24.1 99.45     LegendNANA
04:00 14.4 12.5 88   14 12 24.1 99.40     LegendNANA
05:00 14.5 13.9 96   14 10 24.1 99.35     Cloudy
06:00 14.8 14.3 97   12 10 24.1 99.28     LegendNANA
07:00 15.4 14.6 95   13 13 24.1 99.19     LegendNANA
08:00 16.5 14.9 90   12 19 24.1 99.11     Rain
09:00 16.8 14.6 87   15 22 24.1 99.01     Rain Showers
10:00 15.8 15.2 96   13 18 19.3 98.94     Rain Showers
11:00 15.4 15.4 100   9 10 2.4 98.85     Heavy Rain Showers, Fog
12:00 15.9 15.9 100   11 17 3.2 98.70     Rain Showers, Fog
13:00 17.1 17.1 100   10 18 16.1 98.50     Rain Showers
14:00 18.9 18.9 100   16 18 9.7 98.35     Fog
15:00 18.3 18.1 99   17 20 1.6 98.24     Rain Showers, Fog
16:00 18.7 18.7 100   19 17 4.8 98.13     Rain Showers, Fog
17:00 18.8 18.6 99   23 21 19.3 98.13     Cloudy
18:00 19.4 18.8 96   21 15 19.3 98.12     LegendNANA
19:00 18.2 17.7 97   30 21 1.6 98.16     Rain Showers, Fog
20:00 16.6 16.0 96   30 28 24.1 98.26     Cloudy
21:00 15.6 15.1 97   32 23 24.1 98.35     LegendNANA
22:00 15.4 15.2 99   30 17 19.3 98.44     LegendNANA
23:00 15.5 14.7 95   28 17 24.1 98.51     Cloudy

Notes on Data Quality.

Legend

  • E = Estimated
  • M = Missing
  • NA = Not Available*
  • [empty] = Indicates an unobserved value
Date modified: